Time,TemperatureF,DewpointF,PressureIn,WindDirection,WindDirectionDegrees,WindSpeedMPH,WindSpeedGustMPH,Humidity,HourlyPrecipIn,Conditions,Clouds,dailyrainin,SoftwareType,DateUTC
2013-01-25 00:00:00,21.2,7.1,30.30,East,101,5.4,7.2,54,0.00,,---,0.00,VWS V14.01,2013-01-25 06:00:00,
2013-01-25 00:01:00,21.2,7.1,30.30,ESE,122,5.4,5.4,54,0.00,,---,0.00,VWS V14.01,2013-01-25 06:01:00,
2013-01-25 00:05:00,21.2,7.5,30.29,SE,144,7.2,7.2,55,0.00,,---,0.00,VWS V14.01,2013-01-25 06:05:00,
2013-01-25 00:06:00,21.2,7.5,30.29,SSE,160,5.4,7.2,55,0.00,,---,0.00,VWS V14.01,2013-01-25 06:06:00,
2013-01-25 00:10:00,21.1,7.1,30.28,SE,124,3.6,14.4,54,0.00,,---,0.00,VWS V14.01,2013-01-25 06:10:00,
2013-01-25 00:11:00,21.1,7.4,30.28,ESE,118,10.8,10.8,55,0.00,,---,0.00,VWS V14.01,2013-01-25 06:11:00,
2013-01-25 00:15:00,21.1,7.4,30.28,SE,144,5.4,10.8,55,0.00,,---,0.00,VWS V14.01,2013-01-25 06:15:00,
2013-01-25 00:16:00,21.1,7.4,30.28,ESE,113,7.2,9.0,55,0.00,,---,0.00,VWS V14.01,2013-01-25 06:16:00,
2013-01-25 00:20:00,21.1,7.1,30.27,SW,229,7.2,14.4,54,0.00,,---,0.00,VWS V14.01,2013-01-25 06:20:00,
2013-01-25 00:21:00,21.1,7.1,30.27,SE,134,7.2,9.0,54,0.00,,---,0.00,VWS V14.01,2013-01-25 06:21:00,
2013-01-25 00:25:00,21.1,7.4,30.27,WSW,256,3.6,10.8,55,0.00,,---,0.00,VWS V14.01,2013-01-25 06:25:00,
2013-01-25 00:26:00,21.1,7.4,30.26,South,172,0.0,5.4,55,0.00,,---,0.00,VWS V14.01,2013-01-25 06:26:00,
2013-01-25 00:30:00,21.1,7.4,30.26,SSE,153,5.4,10.8,55,0.00,,---,0.00,VWS V14.01,2013-01-25 06:30:00,
2013-01-25 00:31:00,21.0,7.3,30.26,North,7,5.4,5.4,55,0.00,,---,0.00,VWS V14.01,2013-01-25 06:31:00,
2013-01-25 00:35:00,21.0,7.3,30.27,SE,140,3.6,9.0,55,0.00,,---,0.00,VWS V14.01,2013-01-25 06:35:00,
2013-01-25 00:36:00,21.0,7.3,30.26,SSE,154,0.0,3.6,55,0.00,,---,0.00,VWS V14.01,2013-01-25 06:36:00,
2013-01-25 00:40:00,21.0,7.3,30.26,East,99,5.4,10.8,55,0.00,,---,0.00,VWS V14.01,2013-01-25 06:40:00,
2013-01-25 00:41:00,21.0,7.3,30.26,ESE,121,7.2,12.6,55,0.00,,---,0.00,VWS V14.01,2013-01-25 06:41:00,
2013-01-25 00:45:00,21.0,7.3,30.26,SSW,210,1.8,12.6,55,0.00,,---,0.00,VWS V14.01,2013-01-25 06:45:00,
2013-01-25 00:46:00,21.0,7.3,30.26,SW,222,1.8,5.4,55,0.00,,---,0.00,VWS V14.01,2013-01-25 06:46:00,
2013-01-25 00:50:00,21.0,7.3,30.26,SSW,200,1.8,9.0,55,0.00,,---,0.00,VWS V14.01,2013-01-25 06:50:00,
2013-01-25 00:51:00,21.0,7.3,30.25,South,191,0.0,3.6,55,0.00,,---,0.00,VWS V14.01,2013-01-25 06:51:00,
2013-01-25 00:55:00,21.0,7.3,30.25,South,174,3.6,7.2,55,0.00,,---,0.00,VWS V14.01,2013-01-25 06:55:00,
2013-01-25 00:56:00,21.0,7.7,30.25,SSE,167,1.8,7.2,56,0.00,,---,0.00,VWS V14.01,2013-01-25 06:56:00,
2013-01-25 01:00:00,21.0,7.7,30.25,ESE,115,3.6,7.2,56,0.00,,---,0.00,VWS V14.01,2013-01-25 07:00:00,
2013-01-25 01:01:00,21.0,7.3,30.25,ENE,58,3.6,9.0,55,0.00,,---,0.00,VWS V14.01,2013-01-25 07:01:00,
2013-01-25 01:05:00,21.0,7.3,30.25,ESE,115,1.8,9.0,55,0.00,,---,0.00,VWS V14.01,2013-01-25 07:05:00,
2013-01-25 01:06:00,21.0,7.3,30.25,WSW,243,3.6,14.4,55,0.00,,---,0.00,VWS V14.01,2013-01-25 07:06:00,
2013-01-25 01:10:00,21.0,7.3,30.25,East,98,1.8,14.4,55,0.00,,---,0.00,VWS V14.01,2013-01-25 07:10:00,
2013-01-25 01:11:00,21.0,7.3,30.25,ESE,113,9.0,12.6,55,0.00,,---,0.00,VWS V14.01,2013-01-25 07:11:00,
2013-01-25 01:15:00,21.0,7.3,30.24,SSW,211,7.2,12.6,55,0.00,,---,0.00,VWS V14.01,2013-01-25 07:15:00,
2013-01-25 01:16:00,21.0,7.3,30.24,WNW,283,3.6,7.2,55,0.00,,---,0.00,VWS V14.01,2013-01-25 07:16:00,
2013-01-25 01:20:00,21.0,6.9,30.24,East,89,0.0,10.8,54,0.00,,---,0.00,VWS V14.01,2013-01-25 07:20:00,
2013-01-25 01:21:00,21.0,7.3,30.24,SE,125,1.8,5.4,55,0.00,,---,0.00,VWS V14.01,2013-01-25 07:21:00,
2013-01-25 01:25:00,21.0,6.9,30.24,ESE,113,5.4,14.4,54,0.00,,---,0.00,VWS V14.01,2013-01-25 07:25:00,
2013-01-25 01:26:00,21.0,6.9,30.24,SE,132,3.6,10.8,54,0.00,,---,0.00,VWS V14.01,2013-01-25 07:26:00,
2013-01-25 01:30:00,21.0,6.9,30.24,SW,231,3.6,10.8,54,0.00,,---,0.00,VWS V14.01,2013-01-25 07:30:00,
2013-01-25 01:31:00,21.0,6.9,30.24,SW,214,3.6,5.4,54,0.00,,---,0.00,VWS V14.01,2013-01-25 07:31:00,
2013-01-25 01:35:00,21.0,6.9,30.24,ESE,120,5.4,10.8,54,0.00,,---,0.00,VWS V14.01,2013-01-25 07:35:00,
2013-01-25 01:36:00,21.0,6.9,30.24,ESE,113,1.8,5.4,54,0.00,,---,0.00,VWS V14.01,2013-01-25 07:36:00,
2013-01-25 01:40:00,21.0,6.9,30.24,ESE,113,5.4,10.8,54,0.00,,---,0.00,VWS V14.01,2013-01-25 07:40:00,
2013-01-25 01:41:00,21.0,6.9,30.24,ESE,115,9.0,9.0,54,0.00,,---,0.00,VWS V14.01,2013-01-25 07:41:00,
2013-01-25 01:45:00,21.0,6.9,30.24,ESE,103,5.4,9.0,54,0.00,,---,0.00,VWS V14.01,2013-01-25 07:45:00,
2013-01-25 01:46:00,21.0,6.9,30.24,ESE,113,7.2,7.2,54,0.00,,---,0.00,VWS V14.01,2013-01-25 07:46:00,
2013-01-25 01:50:00,21.0,6.9,30.24,SW,225,1.8,7.2,54,0.00,,---,0.00,VWS V14.01,2013-01-25 07:50:00,
2013-01-25 01:51:00,21.0,6.9,30.24,ESE,123,3.6,5.4,54,0.00,,---,0.00,VWS V14.01,2013-01-25 07:51:00,
2013-01-25 01:55:00,21.0,7.3,30.23,SSE,152,0.0,7.2,55,0.00,,---,0.00,VWS V14.01,2013-01-25 07:55:00,
2013-01-25 01:56:00,21.0,7.3,30.24,SSW,212,3.6,3.6,55,0.00,,---,0.00,VWS V14.01,2013-01-25 07:56:00,
2013-01-25 02:00:00,21.0,7.3,30.23,SSW,201,1.8,7.2,55,0.00,,---,0.00,VWS V14.01,2013-01-25 08:00:00,
2013-01-25 02:01:00,21.0,7.3,30.23,ESE,110,1.8,3.6,55,0.00,,---,0.00,VWS V14.01,2013-01-25 08:01:00,
2013-01-25 02:05:00,21.0,6.9,30.23,ENE,77,1.8,7.2,54,0.00,,---,0.00,VWS V14.01,2013-01-25 08:05:00,
2013-01-25 02:06:00,21.0,6.9,30.23,SE,134,3.6,3.6,54,0.00,,---,0.00,VWS V14.01,2013-01-25 08:06:00,
2013-01-25 02:10:00,21.0,7.3,30.22,ESE,113,5.4,12.6,55,0.00,,---,0.00,VWS V14.01,2013-01-25 08:10:00,
2013-01-25 02:11:00,21.0,7.3,30.23,ESE,110,3.6,5.4,55,0.00,,---,0.00,VWS V14.01,2013-01-25 08:11:00,
2013-01-25 02:15:00,21.0,7.3,30.22,East,79,3.6,5.4,55,0.00,,---,0.00,VWS V14.01,2013-01-25 08:15:00,
2013-01-25 02:16:00,21.0,7.3,30.22,ESE,118,3.6,3.6,55,0.00,,---,0.00,VWS V14.01,2013-01-25 08:16:00,
2013-01-25 02:20:00,21.0,6.9,30.23,SW,222,0.0,12.6,54,0.00,,---,0.00,VWS V14.01,2013-01-25 08:20:00,
2013-01-25 02:21:00,21.0,7.3,30.22,ENE,78,3.6,3.6,55,0.00,,---,0.00,VWS V14.01,2013-01-25 08:21:00,
2013-01-25 02:25:00,21.0,7.3,30.23,SSW,207,0.0,12.6,55,0.00,,---,0.00,VWS V14.01,2013-01-25 08:25:00,
2013-01-25 02:26:00,21.0,7.3,30.23,ESE,120,5.4,5.4,55,0.00,,---,0.00,VWS V14.01,2013-01-25 08:26:00,
2013-01-25 02:30:00,21.0,7.3,30.22,SSW,200,3.6,7.2,55,0.00,,---,0.00,VWS V14.01,2013-01-25 08:30:00,
2013-01-25 02:31:00,21.0,7.3,30.22,SSW,204,1.8,3.6,55,0.00,,---,0.00,VWS V14.01,2013-01-25 08:31:00,
2013-01-25 02:35:00,21.0,7.3,30.22,ESE,120,0.0,9.0,55,0.00,,---,0.00,VWS V14.01,2013-01-25 08:35:00,
2013-01-25 02:36:00,21.0,7.3,30.22,East,89,1.8,3.6,55,0.00,,---,0.00,VWS V14.01,2013-01-25 08:36:00,
2013-01-25 02:40:00,20.9,7.2,30.21,ESE,102,3.6,10.8,55,0.00,,---,0.00,VWS V14.01,2013-01-25 08:40:00,
2013-01-25 02:41:00,20.9,7.2,30.21,SW,225,1.8,3.6,55,0.00,,---,0.00,VWS V14.01,2013-01-25 08:41:00,
2013-01-25 02:45:00,20.9,7.6,30.22,ESE,117,1.8,7.2,56,0.00,,---,0.00,VWS V14.01,2013-01-25 08:45:00,
2013-01-25 02:46:00,20.9,8.0,30.21,SE,129,3.6,7.2,57,0.00,,---,0.00,VWS V14.01,2013-01-25 08:46:00,
2013-01-25 02:50:00,20.8,8.2,30.21,ESE,123,7.2,7.2,58,0.00,,---,0.00,VWS V14.01,2013-01-25 08:50:00,
2013-01-25 02:51:00,20.7,8.1,30.21,SE,134,3.6,7.2,58,0.00,,---,0.00,VWS V14.01,2013-01-25 08:51:00,
2013-01-25 02:55:00,20.6,9.1,30.21,SW,228,5.4,16.2,60,0.00,,---,0.00,VWS V14.01,2013-01-25 08:55:00,
2013-01-25 02:56:00,20.5,9.0,30.21,SSW,210,1.8,5.4,60,0.00,,---,0.00,VWS V14.01,2013-01-25 08:56:00,
2013-01-25 03:00:00,20.4,9.6,30.20,SE,127,3.6,5.4,62,0.00,,---,0.00,VWS V14.01,2013-01-25 09:00:00,
2013-01-25 03:01:00,20.3,9.5,30.19,ENE,76,5.4,7.2,62,0.00,,---,0.00,VWS V14.01,2013-01-25 09:01:00,
2013-01-25 03:05:00,20.2,9.7,30.19,ENE,75,3.6,10.8,63,0.00,,---,0.00,VWS V14.01,2013-01-25 09:05:00,
2013-01-25 03:06:00,20.2,9.7,30.19,SE,132,1.8,5.4,63,0.00,,---,0.00,VWS V14.01,2013-01-25 09:06:00,
2013-01-25 03:10:00,20.0,9.9,30.19,South,187,1.8,12.6,64,0.00,,---,0.00,VWS V14.01,2013-01-25 09:10:00,
2013-01-25 03:11:00,20.0,9.9,30.18,West,276,3.6,10.8,64,0.00,,---,0.00,VWS V14.01,2013-01-25 09:11:00,
2013-01-25 03:15:00,19.9,10.1,30.18,SE,125,3.6,12.6,65,0.00,,---,0.00,VWS V14.01,2013-01-25 09:15:00,
2013-01-25 03:16:00,19.9,10.1,30.18,ESE,114,3.6,10.8,65,0.00,,---,0.00,VWS V14.01,2013-01-25 09:16:00,
2013-01-25 03:20:00,19.9,10.1,30.18,ESE,107,3.6,10.8,65,0.00,,---,0.00,VWS V14.01,2013-01-25 09:20:00,
2013-01-25 03:21:00,19.9,10.1,30.18,ESE,120,3.6,5.4,65,0.00,,---,0.00,VWS V14.01,2013-01-25 09:21:00,
2013-01-25 03:25:00,19.9,10.1,30.18,ESE,113,7.2,9.0,65,0.00,,---,0.00,VWS V14.01,2013-01-25 09:25:00,
2013-01-25 03:26:00,19.9,10.1,30.18,WSW,238,0.0,7.2,65,0.00,,---,0.00,VWS V14.01,2013-01-25 09:26:00,
2013-01-25 03:30:00,19.9,10.1,30.18,South,169,1.8,7.2,65,0.00,,---,0.00,VWS V14.01,2013-01-25 09:30:00,
2013-01-25 03:31:00,19.9,10.1,30.18,East,98,5.4,5.4,65,0.00,,---,0.00,VWS V14.01,2013-01-25 09:31:00,
2013-01-25 03:35:00,20.0,9.9,30.17,SW,226,5.4,12.6,64,0.00,,---,0.00,VWS V14.01,2013-01-25 09:35:00,
2013-01-25 03:36:00,20.0,9.9,30.17,SSW,208,3.6,9.0,64,0.00,,---,0.00,VWS V14.01,2013-01-25 09:36:00,
2013-01-25 03:40:00,20.0,9.9,30.17,East,91,3.6,10.8,64,0.00,,---,0.00,VWS V14.01,2013-01-25 09:40:00,
2013-01-25 03:41:00,20.0,9.9,30.17,East,100,3.6,7.2,64,0.00,,---,0.00,VWS V14.01,2013-01-25 09:41:00,
2013-01-25 03:45:00,20.1,9.9,30.17,SE,139,1.8,9.0,64,0.00,,---,0.00,VWS V14.01,2013-01-25 09:45:00,
2013-01-25 03:46:00,20.1,9.9,30.17,ESE,113,5.4,9.0,64,0.00,,---,0.00,VWS V14.01,2013-01-25 09:46:00,
2013-01-25 03:50:00,20.1,9.9,30.16,South,187,5.4,9.0,64,0.00,,---,0.00,VWS V14.01,2013-01-25 09:50:00,
2013-01-25 03:51:00,20.1,9.9,30.16,SW,216,3.6,7.2,64,0.00,,---,0.00,VWS V14.01,2013-01-25 09:51:00,
2013-01-25 03:55:00,20.1,9.9,30.16,East,96,3.6,18.0,64,0.00,,---,0.00,VWS V14.01,2013-01-25 09:55:00,
2013-01-25 03:56:00,20.1,9.9,30.16,SW,218,1.8,7.2,64,0.00,,---,0.00,VWS V14.01,2013-01-25 09:56:00,
2013-01-25 04:00:00,20.1,10.3,30.16,SW,235,3.6,9.0,65,0.00,,---,0.00,VWS V14.01,2013-01-25 10:00:00,
2013-01-25 04:01:00,20.1,10.3,30.16,SW,224,0.0,3.6,65,0.00,,---,0.00,VWS V14.01,2013-01-25 10:01:00,
2013-01-25 04:05:00,20.0,10.5,30.15,SW,214,5.4,10.8,66,0.00,,---,0.00,VWS V14.01,2013-01-25 10:05:00,
2013-01-25 04:06:00,20.0,10.8,30.15,SW,222,1.8,5.4,67,0.00,,---,0.00,VWS V14.01,2013-01-25 10:06:00,
2013-01-25 04:10:00,19.9,10.7,30.15,SW,233,1.8,9.0,67,0.00,,---,0.00,VWS V14.01,2013-01-25 10:10:00,
2013-01-25 04:11:00,19.9,10.7,30.15,SSW,197,5.4,5.4,67,0.00,,---,0.00,VWS V14.01,2013-01-25 10:11:00,
2013-01-25 04:15:00,19.8,11.2,30.16,ENE,68,1.8,9.0,69,0.00,,---,0.00,VWS V14.01,2013-01-25 10:15:00,
2013-01-25 04:16:00,19.8,11.2,30.16,SE,134,1.8,3.6,69,0.00,,---,0.00,VWS V14.01,2013-01-25 10:16:00,
2013-01-25 04:20:00,19.7,11.1,30.16,South,183,9.0,9.0,69,0.00,,---,0.00,VWS V14.01,2013-01-25 10:20:00,
2013-01-25 04:21:00,19.7,11.1,30.16,SSW,194,1.8,9.0,69,0.00,,---,0.00,VWS V14.01,2013-01-25 10:21:00,
2013-01-25 04:25:00,19.7,11.4,30.16,SSW,195,5.4,9.0,70,0.00,,---,0.00,VWS V14.01,2013-01-25 10:25:00,
2013-01-25 04:26:00,19.6,11.3,30.16,SSW,207,0.0,5.4,70,0.00,,---,0.00,VWS V14.01,2013-01-25 10:26:00,
2013-01-25 04:30:00,19.6,11.6,30.15,WSW,253,5.4,10.8,71,0.00,,---,0.00,VWS V14.01,2013-01-25 10:30:00,
2013-01-25 04:31:00,19.6,11.6,30.15,WSW,249,3.6,7.2,71,0.00,,---,0.00,VWS V14.01,2013-01-25 10:31:00,
2013-01-25 04:35:00,19.5,11.8,30.16,SW,228,3.6,9.0,72,0.00,,---,0.00,VWS V14.01,2013-01-25 10:35:00,
2013-01-25 04:36:00,19.4,12.0,30.16,ESE,110,5.4,5.4,73,0.00,,---,0.00,VWS V14.01,2013-01-25 10:36:00,
2013-01-25 04:40:00,19.2,12.4,30.16,SSW,195,5.4,12.6,74,0.00,,---,0.00,VWS V14.01,2013-01-25 10:40:00,
2013-01-25 04:41:00,19.2,12.4,30.16,ESE,105,3.6,5.4,74,0.00,,---,0.00,VWS V14.01,2013-01-25 10:41:00,
2013-01-25 04:45:00,19.0,12.8,30.16,SW,215,1.8,7.2,76,0.00,,---,0.00,VWS V14.01,2013-01-25 10:45:00,
2013-01-25 04:46:00,19.0,12.8,30.16,WSW,241,1.8,3.6,76,0.00,,---,0.00,VWS V14.01,2013-01-25 10:46:00,
2013-01-25 04:50:00,18.8,12.9,30.16,SSW,195,3.6,9.0,77,0.00,,---,0.00,VWS V14.01,2013-01-25 10:50:00,
2013-01-25 04:51:00,18.8,12.9,30.16,SW,228,5.4,5.4,77,0.00,,---,0.00,VWS V14.01,2013-01-25 10:51:00,
2013-01-25 04:55:00,18.7,13.0,30.17,SW,221,1.8,5.4,78,0.00,,---,0.00,VWS V14.01,2013-01-25 10:55:00,
2013-01-25 04:56:00,18.7,13.0,30.17,SW,219,0.0,1.8,78,0.00,,---,0.00,VWS V14.01,2013-01-25 10:56:00,
2013-01-25 05:00:00,18.6,12.9,30.17,SSW,208,1.8,3.6,78,0.00,,---,0.00,VWS V14.01,2013-01-25 11:00:00,
2013-01-25 05:01:00,18.6,13.2,30.16,SSW,207,0.0,1.8,79,0.00,,---,0.00,VWS V14.01,2013-01-25 11:01:00,
2013-01-25 05:05:00,18.6,13.2,30.16,SSW,193,1.8,5.4,79,0.00,,---,0.00,VWS V14.01,2013-01-25 11:05:00,
2013-01-25 05:06:00,18.6,13.2,30.16,SSE,167,0.0,1.8,79,0.00,,---,0.00,VWS V14.01,2013-01-25 11:06:00,
2013-01-25 05:10:00,18.6,13.2,30.16,SSW,208,0.0,1.8,79,0.00,,---,0.00,VWS V14.01,2013-01-25 11:10:00,
2013-01-25 05:11:00,18.6,13.2,30.16,SSW,211,0.0,0.0,79,0.00,,---,0.00,VWS V14.01,2013-01-25 11:11:00,
2013-01-25 05:15:00,18.6,13.5,30.15,SW,224,0.0,3.6,80,0.00,,---,0.00,VWS V14.01,2013-01-25 11:15:00,
2013-01-25 05:16:00,18.6,13.5,30.15,SE,136,0.0,0.0,80,0.00,,---,0.00,VWS V14.01,2013-01-25 11:16:00,
2013-01-25 05:20:00,18.5,13.4,30.15,West,263,1.8,3.6,80,0.00,,---,0.00,VWS V14.01,2013-01-25 11:20:00,
2013-01-25 05:21:00,18.5,13.4,30.15,SSW,211,1.8,1.8,80,0.00,,---,0.00,VWS V14.01,2013-01-25 11:21:00,
2013-01-25 05:25:00,18.5,13.4,30.15,SW,221,0.0,7.2,80,0.00,,---,0.00,VWS V14.01,2013-01-25 11:25:00,
2013-01-25 05:26:00,18.5,13.4,30.15,SW,221,1.8,1.8,80,0.00,,---,0.00,VWS V14.01,2013-01-25 11:26:00,
2013-01-25 05:30:00,18.5,13.4,30.15,SW,217,0.0,1.8,80,0.00,,---,0.00,VWS V14.01,2013-01-25 11:30:00,
2013-01-25 05:31:00,18.5,13.4,30.15,SW,217,0.0,0.0,80,0.00,,---,0.00,VWS V14.01,2013-01-25 11:31:00,
2013-01-25 05:35:00,18.5,13.4,30.15,SSW,200,3.6,3.6,80,0.00,,---,0.00,VWS V14.01,2013-01-25 11:35:00,
2013-01-25 05:36:00,18.5,13.6,30.15,SSW,210,5.4,5.4,81,0.00,,---,0.00,VWS V14.01,2013-01-25 11:36:00,
2013-01-25 05:40:00,18.5,13.6,30.14,SSW,195,0.0,5.4,81,0.00,,---,0.00,VWS V14.01,2013-01-25 11:40:00,
2013-01-25 05:41:00,18.5,13.6,30.14,SSW,197,1.8,1.8,81,0.00,,---,0.00,VWS V14.01,2013-01-25 11:41:00,
2013-01-25 05:45:00,18.5,13.6,30.14,SE,143,0.0,3.6,81,0.00,,---,0.00,VWS V14.01,2013-01-25 11:45:00,
2013-01-25 05:46:00,18.5,13.6,30.14,SE,144,0.0,0.0,81,0.00,,---,0.00,VWS V14.01,2013-01-25 11:46:00,
2013-01-25 05:50:00,18.5,13.6,30.14,SSW,208,0.0,3.6,81,0.00,,---,0.00,VWS V14.01,2013-01-25 11:50:00,
2013-01-25 05:51:00,18.5,13.6,30.14,SSW,207,0.0,0.0,81,0.00,,---,0.00,VWS V14.01,2013-01-25 11:51:00,
2013-01-25 05:55:00,18.6,13.7,30.14,SW,214,1.8,3.6,81,0.00,,---,0.00,VWS V14.01,2013-01-25 11:55:00,
2013-01-25 05:56:00,18.6,13.7,30.14,SW,214,1.8,1.8,81,0.00,,---,0.00,VWS V14.01,2013-01-25 11:56:00,
2013-01-25 06:00:00,18.6,13.7,30.13,SW,214,0.0,1.8,81,0.00,,---,0.00,VWS V14.01,2013-01-25 12:00:00,
2013-01-25 06:01:00,18.6,13.7,30.13,SSW,207,0.0,0.0,81,0.00,,---,0.00,VWS V14.01,2013-01-25 12:01:00,
2013-01-25 06:05:00,18.6,13.7,30.13,SSW,211,0.0,5.4,81,0.00,,---,0.00,VWS V14.01,2013-01-25 12:05:00,
2013-01-25 06:06:00,18.6,13.7,30.13,SSW,212,0.0,0.0,81,0.00,,---,0.00,VWS V14.01,2013-01-25 12:06:00,
2013-01-25 06:10:00,18.5,13.9,30.12,SSW,197,5.4,7.2,82,0.00,,---,0.00,VWS V14.01,2013-01-25 12:10:00,
2013-01-25 06:11:00,18.5,13.6,30.12,South,174,3.6,5.4,81,0.00,,---,0.00,VWS V14.01,2013-01-25 12:11:00,
2013-01-25 06:15:00,18.5,13.9,30.12,ESE,103,0.0,5.4,82,0.00,,---,0.00,VWS V14.01,2013-01-25 12:15:00,
2013-01-25 06:16:00,18.5,13.9,30.12,WSW,238,3.6,3.6,82,0.00,,---,0.00,VWS V14.01,2013-01-25 12:16:00,
2013-01-25 06:20:00,18.5,13.9,30.12,SE,134,0.0,5.4,82,0.00,,---,0.00,VWS V14.01,2013-01-25 12:20:00,
2013-01-25 06:21:00,18.5,13.9,30.12,SSW,194,1.8,1.8,82,0.00,,---,0.00,VWS V14.01,2013-01-25 12:21:00,
2013-01-25 06:25:00,18.5,13.9,30.12,ESE,105,1.8,1.8,82,0.00,,---,0.00,VWS V14.01,2013-01-25 12:25:00,
2013-01-25 06:26:00,18.5,13.9,30.12,ESE,110,0.0,1.8,82,0.00,,---,0.00,VWS V14.01,2013-01-25 12:26:00,
2013-01-25 06:30:00,18.5,13.9,30.12,SW,214,0.0,1.8,82,0.00,,---,0.00,VWS V14.01,2013-01-25 12:30:00,
2013-01-25 06:31:00,18.5,13.9,30.13,SSW,201,1.8,1.8,82,0.00,,---,0.00,VWS V14.01,2013-01-25 12:31:00,
2013-01-25 06:35:00,18.5,13.9,30.12,South,190,1.8,3.6,82,0.00,,---,0.00,VWS V14.01,2013-01-25 12:35:00,
2013-01-25 06:36:00,18.5,13.9,30.12,South,190,0.0,1.8,82,0.00,,---,0.00,VWS V14.01,2013-01-25 12:36:00,
2013-01-25 06:40:00,18.5,13.9,30.12,SW,225,0.0,5.4,82,0.00,,---,0.00,VWS V14.01,2013-01-25 12:40:00,
2013-01-25 06:41:00,18.5,13.9,30.12,SW,222,1.8,1.8,82,0.00,,---,0.00,VWS V14.01,2013-01-25 12:41:00,
2013-01-25 06:45:00,18.5,13.9,30.12,SSW,197,1.8,3.6,82,0.00,,---,0.00,VWS V14.01,2013-01-25 12:45:00,
2013-01-25 06:46:00,18.5,13.9,30.12,SSW,197,0.0,1.8,82,0.00,,---,0.00,VWS V14.01,2013-01-25 12:46:00,
2013-01-25 06:50:00,18.5,13.6,30.13,SW,218,0.0,3.6,81,0.00,,---,0.00,VWS V14.01,2013-01-25 12:50:00,
2013-01-25 06:51:00,18.6,13.7,30.13,SW,218,0.0,0.0,81,0.00,,---,0.00,VWS V14.01,2013-01-25 12:51:00,
2013-01-25 06:55:00,18.5,13.6,30.13,SSW,210,1.8,5.4,81,0.00,,---,0.00,VWS V14.01,2013-01-25 12:55:00,
2013-01-25 06:56:00,18.5,13.6,30.13,SSW,210,3.6,3.6,81,0.00,,---,0.00,VWS V14.01,2013-01-25 12:56:00,
2013-01-25 07:00:00,18.6,13.7,30.13,SSW,207,0.0,3.6,81,0.00,,---,0.00,VWS V14.01,2013-01-25 13:00:00,
2013-01-25 07:01:00,18.6,13.7,30.13,SSW,207,0.0,1.8,81,0.00,,---,0.00,VWS V14.01,2013-01-25 13:01:00,
2013-01-25 07:05:00,18.6,13.7,30.12,SSW,197,0.0,3.6,81,0.00,,---,0.00,VWS V14.01,2013-01-25 13:05:00,
2013-01-25 07:06:00,18.6,13.7,30.13,SSW,197,0.0,0.0,81,0.00,,---,0.00,VWS V14.01,2013-01-25 13:06:00,
2013-01-25 07:10:00,18.6,13.7,30.12,SW,219,0.0,5.4,81,0.00,,---,0.00,VWS V14.01,2013-01-25 13:10:00,
2013-01-25 07:11:00,18.6,13.7,30.12,SSW,213,1.8,1.8,81,0.00,,---,0.00,VWS V14.01,2013-01-25 13:11:00,
2013-01-25 07:15:00,18.6,13.7,30.12,SSW,208,3.6,5.4,81,0.00,,---,0.00,VWS V14.01,2013-01-25 13:15:00,
2013-01-25 07:16:00,18.6,13.7,30.12,SSW,204,3.6,5.4,81,0.00,,---,0.00,VWS V14.01,2013-01-25 13:16:00,
2013-01-25 07:20:00,18.7,13.8,30.12,SSW,208,0.0,5.4,81,0.00,,---,0.00,VWS V14.01,2013-01-25 13:20:00,
2013-01-25 07:21:00,18.7,13.8,30.12,SSW,208,0.0,0.0,81,0.00,,---,0.00,VWS V14.01,2013-01-25 13:21:00,
2013-01-25 07:25:00,18.7,13.8,30.11,SSW,203,3.6,3.6,81,0.00,,---,0.00,VWS V14.01,2013-01-25 13:25:00,
2013-01-25 07:26:00,18.7,13.8,30.11,SSW,204,3.6,3.6,81,0.00,,---,0.00,VWS V14.01,2013-01-25 13:26:00,
2013-01-25 07:30:00,18.7,13.8,30.11,SW,217,0.0,3.6,81,0.00,,---,0.00,VWS V14.01,2013-01-25 13:30:00,
2013-01-25 07:31:00,18.7,13.8,30.11,SW,217,0.0,0.0,81,0.00,,---,0.00,VWS V14.01,2013-01-25 13:31:00,
2013-01-25 07:35:00,18.7,13.8,30.11,SSW,212,0.0,5.4,81,0.00,,---,0.00,VWS V14.01,2013-01-25 13:35:00,
2013-01-25 07:36:00,18.8,13.9,30.11,SSW,211,0.0,0.0,81,0.00,,---,0.00,VWS V14.01,2013-01-25 13:36:00,
2013-01-25 07:40:00,18.8,13.9,30.10,SSW,195,3.6,3.6,81,0.00,,---,0.00,VWS V14.01,2013-01-25 13:40:00,
2013-01-25 07:41:00,18.8,13.9,30.10,SSW,197,3.6,7.2,81,0.00,,---,0.00,VWS V14.01,2013-01-25 13:41:00,
2013-01-25 07:45:00,18.8,13.9,30.10,WSW,240,1.8,7.2,81,0.00,,---,0.00,VWS V14.01,2013-01-25 13:45:00,
2013-01-25 07:46:00,18.8,13.9,30.10,SW,217,3.6,3.6,81,0.00,,---,0.00,VWS V14.01,2013-01-25 13:46:00,
2013-01-25 07:50:00,18.9,14.0,30.10,SW,214,1.8,3.6,81,0.00,,---,0.00,VWS V14.01,2013-01-25 13:50:00,
2013-01-25 07:51:00,18.9,14.0,30.10,SW,221,1.8,5.4,81,0.00,,---,0.00,VWS V14.01,2013-01-25 13:51:00,
2013-01-25 07:55:00,19.0,14.1,30.10,SSW,205,3.6,5.4,81,0.00,,---,0.00,VWS V14.01,2013-01-25 13:55:00,
2013-01-25 07:56:00,19.0,14.1,30.10,SSE,149,1.8,3.6,81,0.00,,---,0.00,VWS V14.01,2013-01-25 13:56:00,
2013-01-25 08:00:00,19.0,14.1,30.10,SSW,201,0.0,5.4,81,0.00,,---,0.00,VWS V14.01,2013-01-25 14:00:00,
2013-01-25 08:01:00,19.1,14.2,30.10,SW,218,1.8,1.8,81,0.00,,---,0.00,VWS V14.01,2013-01-25 14:01:00,
2013-01-25 08:05:00,19.1,14.2,30.10,SSW,207,0.0,3.6,81,0.00,,---,0.00,VWS V14.01,2013-01-25 14:05:00,
2013-01-25 08:06:00,19.1,14.2,30.10,SSW,207,1.8,1.8,81,0.00,,---,0.00,VWS V14.01,2013-01-25 14:06:00,
2013-01-25 08:10:00,19.3,14.4,30.10,South,190,3.6,5.4,81,0.00,,---,0.00,VWS V14.01,2013-01-25 14:10:00,
2013-01-25 08:11:00,19.3,14.4,30.10,SSE,156,1.8,3.6,81,0.00,,---,0.00,VWS V14.01,2013-01-25 14:11:00,
2013-01-25 08:15:00,19.5,14.6,30.09,SW,217,3.6,7.2,81,0.00,,---,0.00,VWS V14.01,2013-01-25 14:15:00,
2013-01-25 08:16:00,19.5,14.6,30.09,SSW,204,1.8,3.6,81,0.00,,---,0.00,VWS V14.01,2013-01-25 14:16:00,
2013-01-25 08:20:00,19.6,14.4,30.09,South,191,3.6,3.6,80,0.00,,---,0.00,VWS V14.01,2013-01-25 14:20:00,
2013-01-25 08:21:00,19.6,14.4,30.09,SSW,210,1.8,5.4,80,0.00,,---,0.00,VWS V14.01,2013-01-25 14:21:00,
2013-01-25 08:25:00,19.8,14.6,30.09,West,280,0.0,5.4,80,0.00,,---,0.00,VWS V14.01,2013-01-25 14:25:00,
2013-01-25 08:26:00,19.8,14.6,30.09,SSW,197,0.0,1.8,80,0.00,,---,0.00,VWS V14.01,2013-01-25 14:26:00,
2013-01-25 08:30:00,20.0,14.8,30.09,SE,139,1.8,5.4,80,0.00,,---,0.00,VWS V14.01,2013-01-25 14:30:00,
2013-01-25 08:31:00,20.1,14.9,30.09,SSW,198,3.6,3.6,80,0.00,,---,0.00,VWS V14.01,2013-01-25 14:31:00,
2013-01-25 08:35:00,20.2,14.8,30.09,SSW,201,5.4,7.2,79,0.00,,---,0.00,VWS V14.01,2013-01-25 14:35:00,
2013-01-25 08:36:00,20.2,14.8,30.09,South,184,1.8,5.4,79,0.00,,---,0.00,VWS V14.01,2013-01-25 14:36:00,
2013-01-25 08:40:00,20.4,14.7,30.09,SSW,200,1.8,9.0,78,0.00,,---,0.00,VWS V14.01,2013-01-25 14:40:00,
2013-01-25 08:41:00,20.4,14.7,30.09,SSW,200,1.8,1.8,78,0.00,,---,0.00,VWS V14.01,2013-01-25 14:41:00,
2013-01-25 08:45:00,20.7,15.0,30.09,SW,217,5.4,7.2,78,0.00,,---,0.00,VWS V14.01,2013-01-25 14:45:00,
2013-01-25 08:46:00,20.7,15.0,30.09,SSW,195,5.4,7.2,78,0.00,,---,0.00,VWS V14.01,2013-01-25 14:46:00,
2013-01-25 08:50:00,20.8,14.8,30.09,South,184,0.0,10.8,77,0.00,,---,0.00,VWS V14.01,2013-01-25 14:50:00,
2013-01-25 08:51:00,20.9,14.9,30.09,SSW,198,1.8,1.8,77,0.00,,---,0.00,VWS V14.01,2013-01-25 14:51:00,
2013-01-25 08:55:00,21.1,15.1,30.09,SSW,213,0.0,7.2,77,0.00,,---,0.00,VWS V14.01,2013-01-25 14:55:00,
2013-01-25 08:56:00,21.1,15.1,30.09,SW,214,0.0,0.0,77,0.00,,---,0.00,VWS V14.01,2013-01-25 14:56:00,
2013-01-25 09:00:00,21.3,15.3,30.10,West,276,1.8,3.6,77,0.00,,---,0.00,VWS V14.01,2013-01-25 15:00:00,
2013-01-25 09:01:00,21.3,15.3,30.10,West,275,1.8,1.8,77,0.00,,---,0.00,VWS V14.01,2013-01-25 15:01:00,
2013-01-25 09:05:00,21.5,15.2,30.10,West,269,1.8,5.4,76,0.00,,---,0.00,VWS V14.01,2013-01-25 15:05:00,
2013-01-25 09:06:00,21.5,15.2,30.10,WSW,252,1.8,1.8,76,0.00,,---,0.00,VWS V14.01,2013-01-25 15:06:00,
2013-01-25 09:10:00,21.7,15.4,30.09,SSW,210,5.4,7.2,76,0.00,,---,0.00,VWS V14.01,2013-01-25 15:10:00,
2013-01-25 09:11:00,21.7,15.4,30.09,SSW,200,1.8,5.4,76,0.00,,---,0.00,VWS V14.01,2013-01-25 15:11:00,
2013-01-25 09:15:00,21.9,15.3,30.09,West,259,5.4,7.2,75,0.00,,---,0.00,VWS V14.01,2013-01-25 15:15:00,
2013-01-25 09:16:00,21.9,15.3,30.09,West,280,5.4,5.4,75,0.00,,---,0.00,VWS V14.01,2013-01-25 15:16:00,
2013-01-25 09:20:00,22.1,15.2,30.09,WSW,246,1.8,5.4,74,0.00,,---,0.00,VWS V14.01,2013-01-25 15:20:00,
2013-01-25 09:21:00,22.2,15.3,30.09,West,269,1.8,1.8,74,0.00,,---,0.00,VWS V14.01,2013-01-25 15:21:00,
2013-01-25 09:25:00,22.4,15.2,30.09,West,261,5.4,10.8,73,0.00,,---,0.00,VWS V14.01,2013-01-25 15:25:00,
2013-01-25 09:26:00,22.4,15.2,30.09,WNW,297,3.6,7.2,73,0.00,,---,0.00,VWS V14.01,2013-01-25 15:26:00,
2013-01-25 09:30:00,22.7,15.8,30.09,West,269,0.0,7.2,74,0.00,,---,0.00,VWS V14.01,2013-01-25 15:30:00,
2013-01-25 09:31:00,22.7,15.8,30.09,WNW,282,1.8,1.8,74,0.00,,---,0.00,VWS V14.01,2013-01-25 15:31:00,
2013-01-25 09:35:00,22.9,15.7,30.08,West,271,1.8,7.2,73,0.00,,---,0.00,VWS V14.01,2013-01-25 15:35:00,
2013-01-25 09:36:00,22.9,15.7,30.08,WSW,257,3.6,5.4,73,0.00,,---,0.00,VWS V14.01,2013-01-25 15:36:00,
2013-01-25 09:40:00,23.1,15.6,30.08,SW,214,3.6,7.2,73,0.00,,---,0.00,VWS V14.01,2013-01-25 15:40:00,
2013-01-25 09:41:00,23.1,15.6,30.08,West,273,3.6,5.4,73,0.00,,---,0.00,VWS V14.01,2013-01-25 15:41:00,
2013-01-25 09:45:00,23.4,16.2,30.08,WNW,297,3.6,7.2,73,0.00,,---,0.00,VWS V14.01,2013-01-25 15:45:00,
2013-01-25 09:46:00,23.4,16.2,30.08,WSW,246,5.4,7.2,73,0.00,,---,0.00,VWS V14.01,2013-01-25 15:46:00,
2013-01-25 09:50:00,23.6,16.1,30.07,West,267,3.6,9.0,73,0.00,,---,0.00,VWS V14.01,2013-01-25 15:50:00,
2013-01-25 09:51:00,23.6,16.1,30.08,SW,228,3.6,3.6,73,0.00,,---,0.00,VWS V14.01,2013-01-25 15:51:00,
2013-01-25 09:55:00,23.7,15.9,30.07,West,259,3.6,12.6,72,0.00,,---,0.00,VWS V14.01,2013-01-25 15:55:00,
2013-01-25 09:56:00,23.8,16.0,30.07,West,276,3.6,3.6,72,0.00,,---,0.00,VWS V14.01,2013-01-25 15:56:00,
2013-01-25 10:00:00,24.1,16.6,30.08,WNW,284,1.8,7.2,73,0.00,,---,0.00,VWS V14.01,2013-01-25 16:00:00,
2013-01-25 10:01:00,24.1,16.3,30.08,West,259,3.6,3.6,72,0.00,,---,0.00,VWS V14.01,2013-01-25 16:01:00,
2013-01-25 10:05:00,24.4,16.3,30.07,SW,233,9.0,9.0,71,0.00,,---,0.00,VWS V14.01,2013-01-25 16:05:00,
2013-01-25 10:06:00,24.4,16.3,30.08,WSW,252,3.6,9.0,71,0.00,,---,0.00,VWS V14.01,2013-01-25 16:06:00,
2013-01-25 10:10:00,24.6,16.5,30.07,WSW,248,1.8,9.0,71,0.00,,---,0.00,VWS V14.01,2013-01-25 16:10:00,
2013-01-25 10:11:00,24.6,16.5,30.08,WSW,250,1.8,3.6,71,0.00,,---,0.00,VWS V14.01,2013-01-25 16:11:00,
2013-01-25 10:15:00,24.8,16.3,30.07,WNW,298,3.6,9.0,70,0.00,,---,0.00,VWS V14.01,2013-01-25 16:15:00,
2013-01-25 10:16:00,24.8,16.0,30.07,West,272,5.4,7.2,69,0.00,,---,0.00,VWS V14.01,2013-01-25 16:16:00,
2013-01-25 10:20:00,25.0,16.5,30.07,WSW,255,1.8,9.0,70,0.00,,---,0.00,VWS V14.01,2013-01-25 16:20:00,
2013-01-25 10:21:00,25.1,16.6,30.07,WNW,297,5.4,9.0,70,0.00,,---,0.00,VWS V14.01,2013-01-25 16:21:00,
2013-01-25 10:25:00,25.3,16.2,30.07,WSW,237,3.6,10.8,68,0.00,,---,0.00,VWS V14.01,2013-01-25 16:25:00,
2013-01-25 10:26:00,25.4,16.3,30.07,WSW,249,1.8,3.6,68,0.00,,---,0.00,VWS V14.01,2013-01-25 16:26:00,
2013-01-25 10:30:00,25.7,16.3,30.07,WNW,291,5.4,9.0,67,0.00,,---,0.00,VWS V14.01,2013-01-25 16:30:00,
2013-01-25 10:31:00,25.8,16.4,30.07,WNW,289,1.8,5.4,67,0.00,,---,0.00,VWS V14.01,2013-01-25 16:31:00,
2013-01-25 10:35:00,25.9,16.1,30.07,WNW,284,3.6,10.8,66,0.00,,---,0.00,VWS V14.01,2013-01-25 16:35:00,
2013-01-25 10:36:00,25.9,16.5,30.07,NW,321,1.8,3.6,67,0.00,,---,0.00,VWS V14.01,2013-01-25 16:36:00,
2013-01-25 10:40:00,26.1,16.6,30.07,SW,228,3.6,7.2,67,0.00,,---,0.00,VWS V14.01,2013-01-25 16:40:00,
2013-01-25 10:41:00,26.1,16.3,30.07,West,262,3.6,9.0,66,0.00,,---,0.00,VWS V14.01,2013-01-25 16:41:00,
2013-01-25 10:45:00,26.2,16.4,30.07,WNW,293,3.6,12.6,66,0.00,,---,0.00,VWS V14.01,2013-01-25 16:45:00,
2013-01-25 10:46:00,26.1,16.3,30.07,West,271,9.0,10.8,66,0.00,,---,0.00,VWS V14.01,2013-01-25 16:46:00,
2013-01-25 10:50:00,26.3,16.8,30.07,SSW,203,5.4,10.8,67,0.00,,---,0.00,VWS V14.01,2013-01-25 16:50:00,
2013-01-25 10:51:00,26.3,16.8,30.07,West,281,3.6,7.2,67,0.00,,---,0.00,VWS V14.01,2013-01-25 16:51:00,
2013-01-25 10:55:00,26.4,16.3,30.07,SW,217,12.6,14.4,65,0.00,,---,0.00,VWS V14.01,2013-01-25 16:55:00,
2013-01-25 10:56:00,26.4,16.3,30.07,WNW,290,7.2,12.6,65,0.00,,---,0.00,VWS V14.01,2013-01-25 16:56:00,
2013-01-25 11:00:00,26.4,16.6,30.06,West,264,3.6,12.6,66,0.00,,---,0.00,VWS V14.01,2013-01-25 17:00:00,
2013-01-25 11:01:00,26.4,16.6,30.06,West,280,5.4,9.0,66,0.00,,---,0.00,VWS V14.01,2013-01-25 17:01:00,
2013-01-25 11:05:00,26.6,16.8,30.06,NW,314,7.2,10.8,66,0.00,,---,0.00,VWS V14.01,2013-01-25 17:05:00,
2013-01-25 11:06:00,26.7,16.9,30.06,WNW,284,3.6,7.2,66,0.00,,---,0.00,VWS V14.01,2013-01-25 17:06:00,
2013-01-25 11:10:00,27.0,16.9,30.06,WNW,285,1.8,12.6,65,0.00,,---,0.00,VWS V14.01,2013-01-25 17:10:00,
2013-01-25 11:11:00,27.0,17.5,30.06,WSW,238,7.2,9.0,67,0.00,,---,0.00,VWS V14.01,2013-01-25 17:11:00,
2013-01-25 11:15:00,27.1,16.6,30.05,WSW,240,9.0,16.2,64,0.00,,---,0.00,VWS V14.01,2013-01-25 17:15:00,
2013-01-25 11:16:00,27.1,16.6,30.05,WSW,241,9.0,9.0,64,0.00,,---,0.00,VWS V14.01,2013-01-25 17:16:00,
2013-01-25 11:20:00,27.3,16.8,30.05,WSW,246,7.2,12.6,64,0.00,,---,0.00,VWS V14.01,2013-01-25 17:20:00,
2013-01-25 11:21:00,27.3,16.5,30.05,WNW,283,5.4,12.6,63,0.00,,---,0.00,VWS V14.01,2013-01-25 17:21:00,
2013-01-25 11:25:00,27.5,17.0,30.05,WNW,283,3.6,12.6,64,0.00,,---,0.00,VWS V14.01,2013-01-25 17:25:00,
2013-01-25 11:26:00,27.5,17.0,30.05,WSW,237,3.6,5.4,64,0.00,,---,0.00,VWS V14.01,2013-01-25 17:26:00,
2013-01-25 11:30:00,27.9,17.4,30.04,West,264,7.2,10.8,64,0.00,,---,0.00,VWS V14.01,2013-01-25 17:30:00,
2013-01-25 11:31:00,28.0,17.5,30.04,SW,230,3.6,7.2,64,0.00,,---,0.00,VWS V14.01,2013-01-25 17:31:00,
2013-01-25 11:35:00,28.2,17.7,30.04,WSW,252,7.2,9.0,64,0.00,,---,0.00,VWS V14.01,2013-01-25 17:35:00,
2013-01-25 11:36:00,28.2,17.7,30.04,WSW,252,9.0,9.0,64,0.00,,---,0.00,VWS V14.01,2013-01-25 17:36:00,
2013-01-25 11:40:00,28.6,17.0,30.03,SW,228,9.0,16.2,61,0.00,,---,0.00,VWS V14.01,2013-01-25 17:40:00,
2013-01-25 11:41:00,28.5,16.9,30.03,WNW,301,1.8,9.0,61,0.00,,---,0.00,VWS V14.01,2013-01-25 17:41:00,
2013-01-25 11:45:00,28.4,16.8,30.03,WSW,257,1.8,16.2,61,0.00,,---,0.00,VWS V14.01,2013-01-25 17:45:00,
2013-01-25 11:46:00,28.4,17.2,30.03,WNW,282,1.8,3.6,62,0.00,,---,0.00,VWS V14.01,2013-01-25 17:46:00,
2013-01-25 11:50:00,28.4,16.8,30.03,SSW,210,7.2,14.4,61,0.00,,---,0.00,VWS V14.01,2013-01-25 17:50:00,
2013-01-25 11:51:00,28.4,16.5,30.02,West,266,5.4,7.2,60,0.00,,---,0.00,VWS V14.01,2013-01-25 17:51:00,
2013-01-25 11:55:00,28.8,17.2,30.02,NW,309,7.2,10.8,61,0.00,,---,0.00,VWS V14.01,2013-01-25 17:55:00,
2013-01-25 11:56:00,28.8,17.2,30.02,WNW,294,3.6,7.2,61,0.00,,---,0.00,VWS V14.01,2013-01-25 17:56:00,
2013-01-25 12:00:00,29.0,17.0,30.02,WNW,297,3.6,10.8,60,0.00,,---,0.00,VWS V14.01,2013-01-25 18:00:00,
2013-01-25 12:01:00,29.0,17.0,30.02,West,259,3.6,3.6,60,0.00,,---,0.00,VWS V14.01,2013-01-25 18:01:00,
2013-01-25 12:05:00,29.4,17.4,30.02,WSW,253,5.4,14.4,60,0.00,,---,0.00,VWS V14.01,2013-01-25 18:05:00,
2013-01-25 12:06:00,29.4,17.4,30.02,West,262,7.2,7.2,60,0.00,,---,0.00,VWS V14.01,2013-01-25 18:06:00,
2013-01-25 12:10:00,29.3,17.3,30.01,NW,311,3.6,18.0,60,0.00,,---,0.00,VWS V14.01,2013-01-25 18:10:00,
2013-01-25 12:11:00,29.3,17.3,30.01,WNW,297,10.8,10.8,60,0.00,,---,0.00,VWS V14.01,2013-01-25 18:11:00,
2013-01-25 12:15:00,29.5,16.8,30.01,West,276,5.4,12.6,59,0.00,,---,0.00,VWS V14.01,2013-01-25 18:15:00,
2013-01-25 12:16:00,29.5,16.8,30.01,WSW,237,7.2,7.2,59,0.00,,---,0.00,VWS V14.01,2013-01-25 18:16:00,
2013-01-25 12:20:00,29.8,17.4,30.01,NW,316,7.2,14.4,60,0.00,,---,0.00,VWS V14.01,2013-01-25 18:20:00,
2013-01-25 12:21:00,29.9,17.5,30.01,WNW,285,3.6,7.2,60,0.00,,---,0.00,VWS V14.01,2013-01-25 18:21:00,
2013-01-25 12:25:00,30.2,17.5,30.00,SSW,194,1.8,14.4,59,0.00,,---,0.00,VWS V14.01,2013-01-25 18:25:00,
2013-01-25 12:26:00,30.2,17.5,30.00,WSW,254,7.2,9.0,59,0.00,,---,0.00,VWS V14.01,2013-01-25 18:26:00,
2013-01-25 12:30:00,30.5,17.4,30.00,WSW,249,7.2,12.6,58,0.00,,---,0.00,VWS V14.01,2013-01-25 18:30:00,
2013-01-25 12:31:00,30.5,17.4,30.00,West,266,5.4,9.0,58,0.00,,---,0.00,VWS V14.01,2013-01-25 18:31:00,
2013-01-25 12:35:00,30.6,17.5,30.00,WSW,246,9.0,16.2,58,0.00,,---,0.00,VWS V14.01,2013-01-25 18:35:00,
2013-01-25 12:36:00,30.6,17.5,30.00,West,263,3.6,9.0,58,0.00,,---,0.00,VWS V14.01,2013-01-25 18:36:00,
2013-01-25 12:40:00,30.8,17.3,29.99,SW,229,3.6,16.2,57,0.00,,---,0.00,VWS V14.01,2013-01-25 18:40:00,
2013-01-25 12:41:00,30.8,17.3,29.99,SW,226,3.6,5.4,57,0.00,,---,0.00,VWS V14.01,2013-01-25 18:41:00,
2013-01-25 12:45:00,30.9,17.0,29.99,West,278,5.4,19.8,56,0.00,,---,0.00,VWS V14.01,2013-01-25 18:45:00,
2013-01-25 12:46:00,30.9,17.0,29.99,NW,311,1.8,5.4,56,0.00,,---,0.00,VWS V14.01,2013-01-25 18:46:00,
2013-01-25 12:50:00,31.2,17.3,29.99,WSW,246,3.6,10.8,56,0.00,,---,0.00,VWS V14.01,2013-01-25 18:50:00,
2013-01-25 12:51:00,31.2,17.3,29.99,WSW,250,5.4,5.4,56,0.00,,---,0.00,VWS V14.01,2013-01-25 18:51:00,
2013-01-25 12:55:00,31.6,17.2,29.99,NW,312,3.6,10.8,55,0.00,,---,0.00,VWS V14.01,2013-01-25 18:55:00,
2013-01-25 12:56:00,31.7,17.3,29.99,West,271,5.4,5.4,55,0.00,,---,0.00,VWS V14.01,2013-01-25 18:56:00,
2013-01-25 13:00:00,31.8,16.6,29.99,SSW,205,3.6,21.6,53,0.00,,---,0.00,VWS V14.01,2013-01-25 19:00:00,
2013-01-25 13:01:00,31.8,17.0,29.99,SW,226,9.0,9.0,54,0.00,,---,0.00,VWS V14.01,2013-01-25 19:01:00,
2013-01-25 13:05:00,31.9,17.1,29.99,West,259,3.6,14.4,54,0.00,,---,0.00,VWS V14.01,2013-01-25 19:05:00,
2013-01-25 13:06:00,31.9,17.1,29.99,WSW,250,3.6,3.6,54,0.00,,---,0.00,VWS V14.01,2013-01-25 19:06:00,
2013-01-25 13:10:00,32.3,17.5,29.98,WSW,252,16.2,16.2,54,0.00,,---,0.00,VWS V14.01,2013-01-25 19:10:00,
2013-01-25 13:11:00,32.3,17.5,29.99,West,267,12.6,16.2,54,0.00,,---,0.00,VWS V14.01,2013-01-25 19:11:00,
2013-01-25 13:15:00,32.6,17.4,29.99,NW,310,3.6,16.2,53,0.00,,---,0.00,VWS V14.01,2013-01-25 19:15:00,
2013-01-25 13:16:00,32.6,17.4,29.99,West,259,3.6,5.4,53,0.00,,---,0.00,VWS V14.01,2013-01-25 19:16:00,
2013-01-25 13:20:00,32.8,17.2,29.99,NW,309,5.4,14.4,52,0.00,,---,0.00,VWS V14.01,2013-01-25 19:20:00,
2013-01-25 13:21:00,32.8,17.2,29.99,WNW,297,10.8,10.8,52,0.00,,---,0.00,VWS V14.01,2013-01-25 19:21:00,
2013-01-25 13:25:00,32.9,16.8,29.98,WNW,288,1.8,16.2,51,0.00,,---,0.00,VWS V14.01,2013-01-25 19:25:00,
2013-01-25 13:26:00,32.9,16.8,29.99,WSW,255,5.4,7.2,51,0.00,,---,0.00,VWS V14.01,2013-01-25 19:26:00,
2013-01-25 13:30:00,33.1,17.0,29.98,West,259,5.4,18.0,51,0.00,,---,0.00,VWS V14.01,2013-01-25 19:30:00,
2013-01-25 13:31:00,33.1,17.0,29.99,West,276,3.6,5.4,51,0.00,,---,0.00,VWS V14.01,2013-01-25 19:31:00,
2013-01-25 13:35:00,33.2,17.1,29.98,West,262,7.2,16.2,51,0.00,,---,0.00,VWS V14.01,2013-01-25 19:35:00,
2013-01-25 13:36:00,33.3,17.2,29.99,NW,309,7.2,9.0,51,0.00,,---,0.00,VWS V14.01,2013-01-25 19:36:00,
2013-01-25 13:40:00,33.4,16.4,29.98,WSW,255,7.2,19.8,49,0.00,,---,0.00,VWS V14.01,2013-01-25 19:40:00,
2013-01-25 13:41:00,33.4,16.5,29.98,WNW,294,5.4,7.2,49,0.00,,---,0.00,VWS V14.01,2013-01-25 19:41:00,
2013-01-25 13:45:00,33.4,16.9,29.98,WNW,285,9.0,18.0,50,0.00,,---,0.00,VWS V14.01,2013-01-25 19:45:00,
2013-01-25 13:46:00,33.4,16.9,29.99,WNW,283,5.4,9.0,50,0.00,,---,0.00,VWS V14.01,2013-01-25 19:46:00,
2013-01-25 13:50:00,33.8,17.7,29.98,WSW,240,7.2,16.2,51,0.00,,---,0.00,VWS V14.01,2013-01-25 19:50:00,
2013-01-25 13:51:00,33.9,17.8,29.98,West,259,14.4,14.4,51,0.00,,---,0.00,VWS V14.01,2013-01-25 19:51:00,
2013-01-25 13:55:00,34.1,17.5,29.98,West,262,3.6,16.2,50,0.00,,---,0.00,VWS V14.01,2013-01-25 19:55:00,
2013-01-25 13:56:00,34.1,17.5,29.98,NW,310,5.4,5.4,50,0.00,,---,0.00,VWS V14.01,2013-01-25 19:56:00,
2013-01-25 14:00:00,34.3,17.3,29.98,SSW,195,10.8,18.0,49,0.00,,---,0.00,VWS V14.01,2013-01-25 20:00:00,
2013-01-25 14:01:00,34.2,17.2,29.98,SW,222,9.0,16.2,49,0.00,,---,0.00,VWS V14.01,2013-01-25 20:01:00,
2013-01-25 14:05:00,34.2,16.7,29.98,NW,307,3.6,19.8,48,0.00,,---,0.00,VWS V14.01,2013-01-25 20:05:00,
2013-01-25 14:06:00,34.2,17.2,29.98,NNW,332,14.4,14.4,49,0.00,,---,0.00,VWS V14.01,2013-01-25 20:06:00,
2013-01-25 14:10:00,34.4,17.4,29.98,WSW,247,9.0,16.2,49,0.00,,---,0.00,VWS V14.01,2013-01-25 20:10:00,
2013-01-25 14:11:00,34.4,17.4,29.98,WNW,288,5.4,9.0,49,0.00,,---,0.00,VWS V14.01,2013-01-25 20:11:00,
2013-01-25 14:15:00,34.5,17.0,29.98,NW,304,3.6,18.0,48,0.00,,---,0.00,VWS V14.01,2013-01-25 20:15:00,
2013-01-25 14:16:00,34.5,17.0,29.98,NNW,333,5.4,7.2,48,0.00,,---,0.00,VWS V14.01,2013-01-25 20:16:00,
2013-01-25 14:20:00,34.7,17.6,29.98,West,270,12.6,19.8,49,0.00,,---,0.00,VWS V14.01,2013-01-25 20:20:00,
2013-01-25 14:21:00,34.7,17.6,29.98,West,269,7.2,12.6,49,0.00,,---,0.00,VWS V14.01,2013-01-25 20:21:00,
2013-01-25 14:25:00,34.8,17.7,29.98,NW,318,12.6,23.4,49,0.00,,---,0.00,VWS V14.01,2013-01-25 20:25:00,
2013-01-25 14:26:00,34.8,17.7,29.98,WNW,284,5.4,12.6,49,0.00,,---,0.00,VWS V14.01,2013-01-25 20:26:00,
2013-01-25 14:30:00,34.9,17.4,29.98,WNW,294,9.0,16.2,48,0.00,,---,0.00,VWS V14.01,2013-01-25 20:30:00,
2013-01-25 14:31:00,34.8,17.3,29.98,NW,310,12.6,12.6,48,0.00,,---,0.00,VWS V14.01,2013-01-25 20:31:00,
2013-01-25 14:35:00,35.0,17.5,29.98,WSW,240,10.8,19.8,48,0.00,,---,0.00,VWS V14.01,2013-01-25 20:35:00,
2013-01-25 14:36:00,35.0,17.5,29.98,WNW,293,5.4,10.8,48,0.00,,---,0.00,VWS V14.01,2013-01-25 20:36:00,
2013-01-25 14:40:00,35.1,17.6,29.98,NW,319,5.4,21.6,48,0.00,,---,0.00,VWS V14.01,2013-01-25 20:40:00,
2013-01-25 14:41:00,35.1,17.6,29.98,NNE,15,10.8,10.8,48,0.00,,---,0.00,VWS V14.01,2013-01-25 20:41:00,
2013-01-25 14:45:00,35.3,18.2,29.98,NNW,338,3.6,18.0,49,0.00,,---,0.00,VWS V14.01,2013-01-25 20:45:00,
2013-01-25 14:46:00,35.4,18.3,29.98,NW,323,3.6,5.4,49,0.00,,---,0.00,VWS V14.01,2013-01-25 20:46:00,
2013-01-25 14:50:00,35.4,17.9,29.98,WNW,287,9.0,25.2,48,0.00,,---,0.00,VWS V14.01,2013-01-25 20:50:00,
2013-01-25 14:51:00,35.4,17.9,29.98,West,278,10.8,12.6,48,0.00,,---,0.00,VWS V14.01,2013-01-25 20:51:00,
2013-01-25 14:55:00,35.3,17.8,29.98,NW,304,5.4,12.6,48,0.00,,---,0.00,VWS V14.01,2013-01-25 20:55:00,
2013-01-25 14:56:00,35.3,17.8,29.99,NW,314,5.4,5.4,48,0.00,,---,0.00,VWS V14.01,2013-01-25 20:56:00,
2013-01-25 15:00:00,35.4,17.9,29.98,WNW,302,5.4,18.0,48,0.00,,---,0.00,VWS V14.01,2013-01-25 21:00:00,
2013-01-25 15:01:00,35.4,17.9,29.99,SW,226,5.4,7.2,48,0.00,,---,0.00,VWS V14.01,2013-01-25 21:01:00,
2013-01-25 15:05:00,35.3,17.3,29.99,WNW,293,10.8,23.4,47,0.00,,---,0.00,VWS V14.01,2013-01-25 21:05:00,
2013-01-25 15:06:00,35.3,17.3,29.99,West,260,5.4,10.8,47,0.00,,---,0.00,VWS V14.01,2013-01-25 21:06:00,
2013-01-25 15:10:00,35.1,17.6,29.99,NW,321,9.0,27.0,48,0.00,,---,0.00,VWS V14.01,2013-01-25 21:10:00,
2013-01-25 15:11:00,35.1,17.6,29.99,NW,309,9.0,9.0,48,0.00,,---,0.00,VWS V14.01,2013-01-25 21:11:00,
2013-01-25 15:15:00,34.7,17.2,29.99,NW,307,9.0,18.0,48,0.00,,---,0.00,VWS V14.01,2013-01-25 21:15:00,
2013-01-25 15:16:00,34.7,17.2,29.99,NW,323,7.2,9.0,48,0.00,,---,0.00,VWS V14.01,2013-01-25 21:16:00,
2013-01-25 15:20:00,34.5,17.0,29.99,NW,304,5.4,19.8,48,0.00,,---,0.00,VWS V14.01,2013-01-25 21:20:00,
2013-01-25 15:21:00,34.5,17.0,29.99,West,259,9.0,12.6,48,0.00,,---,0.00,VWS V14.01,2013-01-25 21:21:00,
2013-01-25 15:25:00,34.5,17.5,29.99,NW,314,12.6,16.2,49,0.00,,---,0.00,VWS V14.01,2013-01-25 21:25:00,
2013-01-25 15:26:00,34.4,17.4,29.99,NNE,32,12.6,14.4,49,0.00,,---,0.00,VWS V14.01,2013-01-25 21:26:00,
2013-01-25 15:30:00,34.3,17.3,30.00,WNW,288,10.8,14.4,49,0.00,,---,0.00,VWS V14.01,2013-01-25 21:30:00,
2013-01-25 15:31:00,34.3,17.3,30.00,West,262,3.6,10.8,49,0.00,,---,0.00,VWS V14.01,2013-01-25 21:31:00,
2013-01-25 15:35:00,34.2,17.6,30.00,WNW,287,9.0,16.2,50,0.00,,---,0.00,VWS V14.01,2013-01-25 21:35:00,
2013-01-25 15:36:00,34.2,17.6,29.99,WNW,297,5.4,9.0,50,0.00,,---,0.00,VWS V14.01,2013-01-25 21:36:00,
2013-01-25 15:40:00,33.9,17.8,30.00,West,278,10.8,19.8,51,0.00,,---,0.00,VWS V14.01,2013-01-25 21:40:00,
2013-01-25 15:41:00,33.9,17.8,30.00,WSW,240,9.0,10.8,51,0.00,,---,0.00,VWS V14.01,2013-01-25 21:41:00,
2013-01-25 15:45:00,33.7,18.4,30.00,West,264,5.4,18.0,53,0.00,,---,0.00,VWS V14.01,2013-01-25 21:45:00,
2013-01-25 15:46:00,33.7,18.4,30.00,WNW,301,3.6,5.4,53,0.00,,---,0.00,VWS V14.01,2013-01-25 21:46:00,
2013-01-25 15:50:00,33.5,19.4,30.01,NW,306,9.0,21.6,56,0.00,,---,0.00,VWS V14.01,2013-01-25 21:50:00,
2013-01-25 15:51:00,33.5,19.4,30.00,NW,315,19.8,19.8,56,0.00,,---,0.00,VWS V14.01,2013-01-25 21:51:00,
2013-01-25 15:55:00,33.4,19.7,30.01,SW,236,12.6,12.6,57,0.00,,---,0.00,VWS V14.01,2013-01-25 21:55:00,
2013-01-25 16:00:00,32.8,19.9,30.01,NW,326,5.4,19.8,59,0.00,,---,0.00,VWS V14.01,2013-01-25 22:00:00,
2013-01-25 16:05:00,32.4,19.9,30.01,North,356,3.6,14.4,60,0.00,,---,0.00,VWS V14.01,2013-01-25 22:05:00,
2013-01-25 16:10:00,32.0,19.5,30.02,WNW,295,12.6,12.6,60,0.00,,---,0.00,VWS V14.01,2013-01-25 22:10:00,
2013-01-25 16:15:00,31.7,19.6,30.02,NW,314,12.6,14.4,60,0.00,,---,0.00,VWS V14.01,2013-01-25 22:15:00,
2013-01-25 16:20:00,31.3,19.2,30.02,NW,323,21.6,21.6,60,0.00,,---,0.00,VWS V14.01,2013-01-25 22:20:00,
2013-01-25 16:25:00,31.1,19.4,30.03,NW,318,5.4,21.6,61,0.00,,---,0.00,VWS V14.01,2013-01-25 22:25:00,
2013-01-25 16:30:00,30.8,19.1,30.03,NW,308,9.0,9.0,61,0.00,,---,0.00,VWS V14.01,2013-01-25 22:30:00,
2013-01-25 16:35:00,30.4,19.1,30.03,WNW,299,9.0,18.0,62,0.00,,---,0.00,VWS V14.01,2013-01-25 22:35:00,
2013-01-25 16:40:00,30.1,18.8,30.03,WNW,300,7.2,12.6,62,0.00,,---,0.00,VWS V14.01,2013-01-25 22:40:00,
2013-01-25 16:45:00,29.9,18.6,30.03,West,277,5.4,14.4,62,0.00,,---,0.00,VWS V14.01,2013-01-25 22:45:00,
2013-01-25 16:50:00,29.6,18.7,30.03,NW,319,7.2,16.2,63,0.00,,---,0.00,VWS V14.01,2013-01-25 22:50:00,
2013-01-25 16:55:00,29.3,18.4,30.03,NW,322,3.6,10.8,63,0.00,,---,0.00,VWS V14.01,2013-01-25 22:55:00,
2013-01-25 17:00:00,29.1,18.2,30.03,WNW,302,5.4,12.6,63,0.00,,---,0.00,VWS V14.01,2013-01-25 23:00:00,
2013-01-25 17:05:00,29.0,18.1,30.03,West,266,7.2,16.2,63,0.00,,---,0.00,VWS V14.01,2013-01-25 23:05:00,
2013-01-25 17:10:00,28.8,18.2,30.03,NW,314,3.6,14.4,64,0.00,,---,0.00,VWS V14.01,2013-01-25 23:10:00,
2013-01-25 17:15:00,28.7,18.1,30.03,WNW,298,5.4,12.6,64,0.00,,---,0.00,VWS V14.01,2013-01-25 23:15:00,
2013-01-25 17:20:00,28.6,18.0,30.04,NW,307,5.4,10.8,64,0.00,,---,0.00,VWS V14.01,2013-01-25 23:20:00,
2013-01-25 17:25:00,28.4,18.2,30.04,WNW,302,7.2,12.6,65,0.00,,---,0.00,VWS V14.01,2013-01-25 23:25:00,
2013-01-25 17:30:00,28.3,18.1,30.04,NW,316,5.4,7.2,65,0.00,,---,0.00,VWS V14.01,2013-01-25 23:30:00,
2013-01-25 17:35:00,28.2,18.3,30.04,WNW,300,3.6,5.4,66,0.00,,---,0.00,VWS V14.01,2013-01-25 23:35:00,
2013-01-25 17:40:00,28.1,18.2,30.04,West,259,3.6,7.2,66,0.00,,---,0.00,VWS V14.01,2013-01-25 23:40:00,
2013-01-25 17:45:00,28.1,18.2,30.04,WNW,299,1.8,9.0,66,0.00,,---,0.00,VWS V14.01,2013-01-25 23:45:00,
2013-01-25 17:50:00,28.0,18.1,30.05,WNW,291,5.4,9.0,66,0.00,,---,0.00,VWS V14.01,2013-01-25 23:50:00,
2013-01-25 17:55:00,28.0,18.1,30.05,NW,316,3.6,9.0,66,0.00,,---,0.00,VWS V14.01,2013-01-25 23:55:00,
2013-01-25 18:00:00,27.9,18.0,30.05,NW,308,7.2,9.0,66,0.00,,---,0.00,VWS V14.01,2013-01-26 00:00:00,
2013-01-25 18:05:00,28.0,18.5,30.05,WSW,245,3.6,7.2,67,0.00,,---,0.00,VWS V14.01,2013-01-26 00:05:00,
2013-01-25 18:10:00,27.9,18.4,30.06,WNW,287,1.8,5.4,67,0.00,,---,0.00,VWS V14.01,2013-01-26 00:10:00,
2013-01-25 18:15:00,27.9,18.4,30.06,West,263,5.4,9.0,67,0.00,,---,0.00,VWS V14.01,2013-01-26 00:15:00,
2013-01-25 18:20:00,28.0,18.1,30.07,WNW,302,9.0,12.6,66,0.00,,---,0.00,VWS V14.01,2013-01-26 00:20:00,
2013-01-25 18:25:00,28.1,18.2,30.07,NW,304,5.4,10.8,66,0.00,,---,0.00,VWS V14.01,2013-01-26 00:25:00,
2013-01-25 18:30:00,27.9,18.0,30.07,WNW,299,5.4,12.6,66,0.00,,---,0.00,VWS V14.01,2013-01-26 00:30:00,
2013-01-25 18:35:00,27.8,17.3,30.08,NW,307,10.8,12.6,64,0.00,,---,0.00,VWS V14.01,2013-01-26 00:35:00,
2013-01-25 18:40:00,27.7,16.5,30.08,NW,307,9.0,18.0,62,0.00,,---,0.00,VWS V14.01,2013-01-26 00:40:00,
2013-01-25 18:45:00,27.4,15.9,30.08,NW,323,7.2,12.6,61,0.00,,---,0.00,VWS V14.01,2013-01-26 00:45:00,
2013-01-25 18:50:00,27.2,15.0,30.09,NW,316,9.0,18.0,60,0.00,,---,0.00,VWS V14.01,2013-01-26 00:50:00,
2013-01-25 18:55:00,27.0,14.1,30.09,North,354,7.2,18.0,58,0.00,,---,0.00,VWS V14.01,2013-01-26 00:55:00,
2013-01-25 19:00:00,26.8,13.5,30.09,WNW,290,9.0,12.6,57,0.00,,---,0.00,VWS V14.01,2013-01-26 01:00:00,
2013-01-25 19:05:00,26.6,13.7,30.09,WNW,284,3.6,19.8,58,0.00,,---,0.00,VWS V14.01,2013-01-26 01:05:00,
2013-01-25 19:10:00,26.3,12.3,30.10,WNW,302,5.4,23.4,55,0.00,,---,0.00,VWS V14.01,2013-01-26 01:10:00,
2013-01-25 19:15:00,25.9,11.1,30.10,WNW,299,12.6,16.2,53,0.00,,---,0.00,VWS V14.01,2013-01-26 01:15:00,
2013-01-25 19:20:00,25.7,10.1,30.10,NW,308,7.2,18.0,51,0.00,,---,0.00,VWS V14.01,2013-01-26 01:20:00,
2013-01-25 19:25:00,25.4,10.3,30.10,NW,307,9.0,16.2,52,0.00,,---,0.00,VWS V14.01,2013-01-26 01:25:00,
2013-01-25 19:30:00,25.1,10.4,30.10,NNW,335,7.2,12.6,53,0.00,,---,0.00,VWS V14.01,2013-01-26 01:30:00,
2013-01-25 19:35:00,24.6,9.9,30.11,NW,315,7.2,16.2,53,0.00,,---,0.00,VWS V14.01,2013-01-26 01:35:00,
2013-01-25 19:40:00,24.2,9.6,30.11,NW,306,5.4,12.6,53,0.00,,---,0.00,VWS V14.01,2013-01-26 01:40:00,
2013-01-25 19:45:00,23.8,9.2,30.11,WNW,297,9.0,14.4,53,0.00,,---,0.00,VWS V14.01,2013-01-26 01:45:00,
2013-01-25 19:50:00,23.6,9.0,30.11,NW,326,7.2,12.6,53,0.00,,---,0.00,VWS V14.01,2013-01-26 01:50:00,
2013-01-25 19:55:00,23.4,8.8,30.11,WNW,287,5.4,16.2,53,0.00,,---,0.00,VWS V14.01,2013-01-26 01:55:00,
2013-01-25 20:00:00,23.2,9.0,30.12,West,274,1.8,12.6,54,0.00,,---,0.00,VWS V14.01,2013-01-26 02:00:00,
2013-01-25 20:05:00,23.0,8.8,30.11,WNW,294,7.2,12.6,54,0.00,,---,0.00,VWS V14.01,2013-01-26 02:05:00,
2013-01-25 20:10:00,22.8,8.6,30.12,NW,309,3.6,12.6,54,0.00,,---,0.00,VWS V14.01,2013-01-26 02:10:00,
2013-01-25 20:15:00,22.6,8.4,30.12,WNW,302,5.4,10.8,54,0.00,,---,0.00,VWS V14.01,2013-01-26 02:15:00,
2013-01-25 20:20:00,22.3,8.2,30.12,NW,309,5.4,9.0,54,0.00,,---,0.00,VWS V14.01,2013-01-26 02:20:00,
2013-01-25 20:25:00,22.1,8.0,30.13,NW,304,5.4,16.2,54,0.00,,---,0.00,VWS V14.01,2013-01-26 02:25:00,
2013-01-25 20:30:00,21.9,8.2,30.13,NW,321,3.6,12.6,55,0.00,,---,0.00,VWS V14.01,2013-01-26 02:30:00,
2013-01-25 20:35:00,21.5,7.8,30.13,NNW,333,5.4,10.8,55,0.00,,---,0.00,VWS V14.01,2013-01-26 02:35:00,
2013-01-25 20:40:00,21.4,7.7,30.13,NNW,327,5.4,10.8,55,0.00,,---,0.00,VWS V14.01,2013-01-26 02:40:00,
2013-01-25 20:45:00,21.1,7.4,30.13,WNW,301,5.4,10.8,55,0.00,,---,0.00,VWS V14.01,2013-01-26 02:45:00,
2013-01-25 20:50:00,20.9,7.2,30.13,WNW,297,5.4,12.6,55,0.00,,---,0.00,VWS V14.01,2013-01-26 02:50:00,
2013-01-25 20:55:00,20.7,7.1,30.13,WNW,297,5.4,10.8,55,0.00,,---,0.00,VWS V14.01,2013-01-26 02:55:00,
2013-01-25 21:00:00,20.5,7.2,30.13,NNW,335,3.6,9.0,56,0.00,,---,0.00,VWS V14.01,2013-01-26 03:00:00,
2013-01-25 21:05:00,20.4,7.1,30.14,WNW,295,5.4,14.4,56,0.00,,---,0.00,VWS V14.01,2013-01-26 03:05:00,
2013-01-25 21:10:00,20.3,7.0,30.14,WNW,284,1.8,12.6,56,0.00,,---,0.00,VWS V14.01,2013-01-26 03:10:00,
2013-01-25 21:15:00,20.1,7.2,30.15,NNW,327,1.8,10.8,57,0.00,,---,0.00,VWS V14.01,2013-01-26 03:15:00,
2013-01-25 21:20:00,19.9,7.0,30.15,NW,306,7.2,10.8,57,0.00,,---,0.00,VWS V14.01,2013-01-26 03:20:00,
2013-01-25 21:25:00,19.8,7.3,30.15,NNW,336,9.0,9.0,58,0.00,,---,0.00,VWS V14.01,2013-01-26 03:25:00,
2013-01-25 21:30:00,19.6,7.1,30.16,NW,309,5.4,12.6,58,0.00,,---,0.00,VWS V14.01,2013-01-26 03:30:00,
2013-01-25 21:35:00,19.5,7.0,30.16,NW,315,10.8,10.8,58,0.00,,---,0.00,VWS V14.01,2013-01-26 03:35:00,
2013-01-25 21:40:00,19.4,7.3,30.16,NW,321,1.8,12.6,59,0.00,,---,0.00,VWS V14.01,2013-01-26 03:40:00,
2013-01-25 21:45:00,19.2,7.1,30.17,WNW,293,3.6,7.2,59,0.00,,---,0.00,VWS V14.01,2013-01-26 03:45:00,
2013-01-25 21:50:00,19.0,7.2,30.17,NW,310,3.6,7.2,60,0.00,,---,0.00,VWS V14.01,2013-01-26 03:50:00,
2013-01-25 21:55:00,18.8,7.1,30.17,NW,304,3.6,7.2,60,0.00,,---,0.00,VWS V14.01,2013-01-26 03:55:00,
2013-01-25 22:00:00,18.7,7.0,30.18,NNW,330,5.4,10.8,60,0.00,,---,0.00,VWS V14.01,2013-01-26 04:00:00,
2013-01-25 22:05:00,18.6,7.2,30.18,NNW,330,9.0,10.8,60,0.00,,---,0.00,VWS V14.01,2013-01-26 04:05:00,
2013-01-25 22:10:00,18.5,7.1,30.18,NW,309,3.6,7.2,60,0.00,,---,0.00,VWS V14.01,2013-01-26 04:10:00,
2013-01-25 22:15:00,18.3,7.3,30.19,NNE,25,3.6,5.4,61,0.00,,---,0.00,VWS V14.01,2013-01-26 04:15:00,
2013-01-25 22:20:00,18.3,7.3,30.19,WNW,299,3.6,9.0,61,0.00,,---,0.00,VWS V14.01,2013-01-26 04:20:00,
2013-01-25 22:25:00,18.2,7.2,30.19,NW,323,9.0,9.0,61,0.00,,---,0.00,VWS V14.01,2013-01-26 04:25:00,
2013-01-25 22:34:00,18.0,7.0,30.19,NW,314,5.4,5.4,61,0.00,,---,0.00,VWS V14.01,2013-01-26 04:34:00,
2013-01-25 22:39:00,18.0,7.3,30.20,WNW,290,3.6,9.0,62,0.00,,---,0.00,VWS V14.01,2013-01-26 04:39:00,
2013-01-25 22:44:00,17.8,7.1,30.20,WNW,297,3.6,7.2,62,0.00,,---,0.00,VWS V14.01,2013-01-26 04:44:00,
2013-01-25 22:49:00,17.6,7.2,30.21,WNW,299,3.6,5.4,63,0.00,,---,0.00,VWS V14.01,2013-01-26 04:49:00,
2013-01-25 22:54:00,17.4,7.1,30.21,NW,311,5.4,9.0,63,0.00,,---,0.00,VWS V14.01,2013-01-26 04:54:00,
2013-01-25 22:59:00,17.3,7.0,30.21,WNW,290,3.6,7.2,63,0.00,,---,0.00,VWS V14.01,2013-01-26 04:59:00,
2013-01-25 23:00:00,17.3,7.3,30.21,NNW,340,5.4,7.2,64,0.00,,---,0.00,VWS V14.01,2013-01-26 05:00:00,
2013-01-25 23:02:00,17.2,6.9,30.21,NW,309,3.6,7.2,63,0.00,,---,0.00,VWS V14.01,2013-01-26 05:02:00,
2013-01-25 23:07:00,17.1,7.1,30.21,NW,304,1.8,3.6,64,0.00,,---,0.00,VWS V14.01,2013-01-26 05:07:00,
2013-01-25 23:12:00,16.9,6.9,30.22,NW,304,3.6,5.4,64,0.00,,---,0.00,VWS V14.01,2013-01-26 05:12:00,
2013-01-25 23:17:00,16.8,7.1,30.22,NW,304,3.6,10.8,65,0.00,,---,0.00,VWS V14.01,2013-01-26 05:17:00,
2013-01-25 23:22:00,16.7,7.0,30.22,NNW,340,5.4,5.4,65,0.00,,---,0.00,VWS V14.01,2013-01-26 05:22:00,
2013-01-25 23:27:00,16.6,6.9,30.23,WNW,290,3.6,5.4,65,0.00,,---,0.00,VWS V14.01,2013-01-26 05:27:00,
2013-01-25 23:32:00,16.5,6.8,30.23,NW,315,1.8,5.4,65,0.00,,---,0.00,VWS V14.01,2013-01-26 05:32:00,
2013-01-25 23:37:00,16.4,6.7,30.24,NW,307,1.8,5.4,65,0.00,,---,0.00,VWS V14.01,2013-01-26 05:37:00,
2013-01-25 23:42:00,16.3,7.0,30.24,WNW,300,3.6,5.4,66,0.00,,---,0.00,VWS V14.01,2013-01-26 05:42:00,
2013-01-25 23:47:00,16.1,6.8,30.24,SW,231,1.8,7.2,66,0.00,,---,0.00,VWS V14.01,2013-01-26 05:47:00,
2013-01-25 23:51:00,16.1,6.8,30.25,West,276,1.8,5.4,66,0.00,,---,0.00,VWS V14.01,2013-01-26 05:51:00,
2013-01-25 23:56:00,16.0,6.7,30.24,WNW,297,7.2,10.8,66,0.00,,---,0.00,VWS V14.01,2013-01-26 05:56:00,